[[{"header":{"parameterUnit":"m.s-1","parameterCategory":1,"la1":30.2991,"la2":30.254,"lo1":-89.0895,"lo2":-89.0444,"dy":0.0017,"dx":0.0017,"nx":28,"ny":28,"refTime":"2024-04-02T21:00:00:Z","depth":0,"parameterNumber":2,"parameterNumberName":"U-component_of_WINDS"},"data":[0,0,0,0,0,0,0,0,0,0,0,0,0,0,0,0,0,0,0,0,0,0,0,0,0,0,0,0,0,0,0,0,0,0,0,0,0,0,0,0,0,0,0,0,0,0,0,0,0,0,0,0,0,0,0,0,0,0,3.7392,3.7393,0,3.7469,3.747,3.747,3.746,3.7459,3.7458,3.7456,3.7536,3.7539,3.7543,0,0,0,0,0,0,0,0,0,0,0,0,0,3.7239,3.7242,3.7392,3.7393,3.7394,3.7469,3.747,3.7471,3.746,3.7459,3.7457,3.7456,3.7535,3.7539,3.7543,0,0,0,0,0,0,0,0,0,0,0,0,0,3.731,3.7243,3.7392,3.7398,3.7399,3.7468,3.747,3.7471,3.7461,3.7459,3.7457,3.7455,3.7534,3.7539,3.7544,3.7612,0,0,3.7559,3.7561,0,0,0,0,0,0,0,0,3.7306,3.7315,3.7396,3.7397,3.7399,3.7453,3.7445,3.7518,3.7461,3.7437,3.7456,3.7454,3.751,3.7517,3.7536,3.7616,3.762,3.7559,3.7562,3.7564,3.7566,0,0,0,0,0,0,0,3.7301,3.7312,3.7422,3.7397,3.7399,3.7397,3.7405,3.7459,3.7483,3.7439,3.7439,3.7448,3.7511,3.7531,3.7537,3.7621,3.7559,3.7563,3.7567,3.7568,3.7765,3.7767,0,0,0,0,0,0,3.7294,3.7308,3.742,3.7425,3.7347,3.7402,3.7411,3.7437,3.7483,3.7488,3.7449,3.7447,3.7523,3.7532,3.754,3.7625,3.7564,3.7569,3.7572,3.7763,3.7765,3.7768,0,0,0,0,0,0,3.7291,3.7304,3.7417,3.7366,3.738,3.7406,3.7437,3.744,3.746,3.7491,3.7495,3.7465,3.7522,3.7533,3.7595,3.7628,3.7571,3.7576,3.776,3.7763,3.7767,3.7795,0,0,0,0,0,0,3.7287,3.7303,3.7328,3.7367,3.7383,3.7469,3.7439,3.7443,3.7469,3.7466,3.7507,3.7511,3.7521,3.7588,3.76,3.7634,3.758,3.7757,3.7762,3.7766,3.7791,3.7799,3.7806,0,0,0,0,0,3.7281,3.7333,3.733,3.7343,3.7415,3.7471,3.7481,3.7491,3.7471,3.7498,3.7518,3.751,3.7623,3.7594,3.7608,3.7644,3.7755,3.776,3.7765,3.7788,3.7798,3.7805,0,0,0,0,0,0,3.7298,3.7338,3.7335,3.7401,3.7433,3.7469,3.7503,3.75,3.7538,3.7534,3.7546,3.7555,3.7618,3.7637,3.7605,3.7714,3.7686,3.7694,3.7699,3.7708,3.7715,3.7709,3.7584,0,0,0,0,0,3.7309,3.735,3.7384,3.7439,3.7455,3.7476,3.7501,3.7506,3.754,3.7553,3.7578,3.7611,3.7655,3.7682,3.7724,3.7795,3.7804,3.7826,3.7833,3.7839,3.7846,3.7887,3.7898,3.7784,3.7784,3.7784,0,0,3.7333,3.736,3.7385,3.7443,3.7468,3.7512,3.7488,3.7534,3.7567,3.7561,3.7621,3.764,3.7679,3.7746,3.7777,3.7764,3.788,3.7845,3.785,3.7853,3.7893,3.7904,3.7913,3.7788,3.7787,3.7787,0,0,3.7398,3.7422,3.7472,3.7498,3.7537,3.7552,3.7564,3.7602,3.7614,3.7675,3.7672,3.7712,3.7785,3.7813,3.7837,3.7917,3.7912,3.7931,3.7968,3.8008,3.8017,3.8025,3.8054,3.8065,3.7937,3.7937,3.7937,0,3.7423,3.7487,3.7497,3.7545,3.7572,3.7569,3.762,3.7645,3.7696,3.7714,3.7699,3.7793,3.7819,3.7894,3.7913,3.7932,3.7948,3.7925,3.8014,3.8022,3.803,3.8059,3.807,3.7939,3.7939,3.7939,3.7939,0,3.7517,3.7562,3.7597,3.7647,3.7677,3.7726,3.7745,3.7775,3.7779,3.7795,3.7859,3.789,3.7938,3.7957,3.796,3.8033,3.8024,3.8012,3.7984,3.8043,3.807,3.8081,3.7942,3.7941,3.7941,3.794,0,0,3.7593,3.7649,3.7662,3.7685,3.7729,3.7765,3.7816,3.7863,3.7889,3.7925,3.7969,3.8032,3.8022,3.8049,3.8056,3.8092,3.8155,3.8075,3.8076,3.809,3.824,3.8249,3.8261,3.8153,3.8155,3.8156,3.8237,0,3.7663,3.7751,3.7763,3.7841,3.7885,3.7884,3.7928,3.7961,3.7978,3.8019,3.8038,3.8084,3.8066,3.8083,3.8118,3.814,3.8185,3.8134,3.8194,3.8196,3.8185,3.8275,3.8284,3.8359,3.8247,3.8249,3.825,0,3.7756,3.7795,3.7878,3.7919,3.7937,3.7977,3.8023,3.8061,3.8099,3.811,3.8142,3.8145,3.8199,3.817,3.8245,3.821,3.8236,3.8251,3.8255,3.826,3.8227,3.8284,3.8382,3.8394,3.8267,3.8266,3.8264,0,3.7805,3.7878,3.7938,3.7958,3.8006,3.8035,3.8056,3.8093,3.8121,3.8162,3.8181,3.8228,3.8253,3.829,3.8307,3.8284,3.8382,3.8354,3.8394,3.8393,3.8414,3.8412,3.8518,3.843,3.843,3.843,3.8429,0,3.7882,3.7933,3.7961,3.7997,3.8055,3.807,3.8127,3.8148,3.8181,3.8223,3.8225,3.8265,3.8284,3.8328,3.8341,3.8403,3.8414,3.8425,3.8428,3.8425,3.8424,3.8442,3.8437,3.8432,3.8432,3.8431,3.8431,0,3.7946,3.7966,3.8031,3.8072,3.8084,3.8125,3.8161,3.8198,3.8216,3.8269,3.8283,3.8312,3.8363,3.8384,3.8446,3.8456,3.8527,3.8526,3.8514,3.8515,3.8554,3.855,3.8675,3.8693,3.8593,3.8594,3.8594,0,3.7994,3.8033,3.8079,3.8107,3.813,3.8175,3.8205,3.8222,3.8253,3.8301,3.8333,3.8384,3.8425,3.8508,3.8535,3.8584,3.8584,3.8625,3.8591,3.8588,3.8586,3.8583,3.8588,3.8631,3.8632,3.8632,3.8633,0,3.8077,3.8086,3.8128,3.8175,3.8211,3.8248,3.8285,3.8309,3.8331,3.8366,3.8419,3.8451,3.8516,3.8568,3.8618,3.8642,3.8642,3.8644,3.8656,3.8653,3.8645,3.8651,3.8531,3.864,3.864,3.8639,3.8639,3.8638,3.8135,3.8171,3.821,3.8258,3.8287,3.8322,3.8359,3.8383,3.8427,3.848,3.8488,3.8545,3.8585,3.8653,3.8679,3.8725,3.8715,3.8732,3.8736,3.874,3.8743,3.8637,3.8734,3.8734,3.8734,3.8734,3.8734,0,3.822,3.8245,3.8289,3.8341,3.8379,3.8376,3.8417,3.845,3.85,3.8537,3.8578,3.864,3.8691,3.8723,3.8775,3.8805,3.8807,3.8818,3.8816,3.8822,3.8749,3.8734,3.8816,3.8816,3.8816,3.8816,3.8816,3.8816,3.8268,3.8329,3.8343,3.842,3.8445,3.85,3.8524,3.8558,3.8587,3.8656,3.8698,3.8719,3.8755,3.881,3.8857,3.8865,3.8885,3.8897,3.8905,3.8836,3.8827,3.8819,3.8805,3.8901,3.8901,3.8975,3.8975,3.8976]},{"header":{"parameterUnit":"m.s-1","parameterCategory":1,"la1":30.2991,"la2":30.254,"lo1":-89.0895,"lo2":-89.0444,"dy":0.0017,"dx":0.0017,"nx":28,"ny":28,"refTime":"2024-04-02T21:00:00:Z","depth":0,"parameterNumber":3,"parameterNumberName":"V-component_of_WINDS"},"data":[0,0,0,0,0,0,0,0,0,0,0,0,0,0,0,0,0,0,0,0,0,0,0,0,0,0,0,0,0,0,0,0,0,0,0,0,0,0,0,0,0,0,0,0,0,0,0,0,0,0,0,0,0,0,0,0,0,0,-6.5544,-6.5546,0,-6.5674,-6.5676,-6.5677,-6.5658,-6.5656,-6.5654,-6.5652,-6.578,-6.5785,-6.579,0,0,0,0,0,0,0,0,0,0,0,0,0,-6.5276,-6.5281,-6.5544,-6.5546,-6.5547,-6.5674,-6.5676,-6.5678,-6.5658,-6.5656,-6.5653,-6.5651,-6.5778,-6.5784,-6.5791,0,0,0,0,0,0,0,0,0,0,0,0,0,-6.5398,-6.5282,-6.5544,-6.5553,-6.5555,-6.5674,-6.5676,-6.5678,-6.5659,-6.5656,-6.5652,-6.5649,-6.5776,-6.5784,-6.5792,-6.5908,0,0,-6.5817,-6.582,0,0,0,0,0,0,0,0,-6.5391,-6.5407,-6.555,-6.5553,-6.5555,-6.5647,-6.5628,-6.5755,-6.566,-6.5619,-6.5651,-6.5648,-6.5738,-6.5749,-6.578,-6.5914,-6.5919,-6.5818,-6.5822,-6.5826,-6.5828,0,0,0,0,0,0,0,-6.5382,-6.5402,-6.5595,-6.5552,-6.5555,-6.555,-6.5564,-6.5652,-6.5695,-6.5623,-6.5622,-6.5638,-6.5738,-6.5772,-6.5783,-6.5921,-6.5817,-6.5825,-6.583,-6.5833,-6.6158,-6.6162,0,0,0,0,0,0,-6.5372,-6.5395,-6.5591,-6.5599,-6.5463,-6.5557,-6.5573,-6.5621,-6.5694,-6.5702,-6.564,-6.5636,-6.576,-6.5774,-6.5788,-6.593,-6.5826,-6.5834,-6.5838,-6.6155,-6.6159,-6.6163,0,0,0,0,0,0,-6.5366,-6.539,-6.5586,-6.5497,-6.5522,-6.5565,-6.5619,-6.5625,-6.5659,-6.5708,-6.5715,-6.5667,-6.5758,-6.5776,-6.5879,-6.5934,-6.5837,-6.5845,-6.615,-6.6156,-6.6161,-6.6214,0,0,0,0,0,0,-6.5359,-6.5388,-6.5433,-6.5498,-6.5526,-6.5676,-6.5623,-6.563,-6.5674,-6.567,-6.5735,-6.5742,-6.5757,-6.5867,-6.5887,-6.5943,-6.5851,-6.6146,-6.6153,-6.616,-6.6208,-6.6221,-6.6232,0,0,0,0,0,-6.5349,-6.5441,-6.5435,-6.5459,-6.5584,-6.5679,-6.5695,-6.5712,-6.5678,-6.5724,-6.5755,-6.574,-6.5925,-6.5878,-6.59,-6.596,-6.6142,-6.6151,-6.6159,-6.6202,-6.6218,-6.6232,0,0,0,0,0,0,-6.5378,-6.5449,-6.5444,-6.556,-6.5614,-6.5676,-6.5734,-6.5728,-6.5791,-6.5785,-6.5801,-6.5816,-6.592,-6.595,-6.5896,-6.6077,-6.6029,-6.6042,-6.6054,-6.6069,-6.6081,-6.6072,-6.5858,0,0,0,0,0,-6.5398,-6.5471,-6.5529,-6.5625,-6.5653,-6.5689,-6.5731,-6.574,-6.5796,-6.5818,-6.5857,-6.5911,-6.5981,-6.6027,-6.6094,-6.6212,-6.6226,-6.6264,-6.6277,-6.6286,-6.6298,-6.6364,-6.6382,-6.6191,-6.6191,-6.6191,0,0,-6.544,-6.5488,-6.5532,-6.5633,-6.5676,-6.575,-6.5708,-6.5788,-6.5844,-6.5829,-6.593,-6.5961,-6.6022,-6.6134,-6.6184,-6.6162,-6.6354,-6.6297,-6.6305,-6.6311,-6.6375,-6.6393,-6.6409,-6.6197,-6.6196,-6.6195,0,0,-6.5554,-6.5598,-6.5684,-6.5729,-6.5796,-6.582,-6.584,-6.5904,-6.5925,-6.6027,-6.6018,-6.6084,-6.6204,-6.6249,-6.6287,-6.6422,-6.6411,-6.6443,-6.6507,-6.6572,-6.6587,-6.66,-6.665,-6.6667,-6.6454,-6.6455,-6.6455,0,-6.5597,-6.5711,-6.5729,-6.5811,-6.5856,-6.5849,-6.5937,-6.5979,-6.6063,-6.6094,-6.6067,-6.6221,-6.6261,-6.6384,-6.6417,-6.6448,-6.6473,-6.6436,-6.6584,-6.6597,-6.661,-6.6657,-6.6676,-6.6458,-6.6458,-6.6457,-6.6457,0,-6.5761,-6.584,-6.5901,-6.5987,-6.6038,-6.6122,-6.6153,-6.6203,-6.6207,-6.6233,-6.6338,-6.6387,-6.6465,-6.6494,-6.6498,-6.6619,-6.6603,-6.658,-6.6532,-6.6632,-6.6676,-6.6694,-6.6463,-6.6462,-6.6461,-6.646,0,0,-6.5895,-6.5992,-6.6014,-6.6054,-6.6128,-6.6189,-6.6273,-6.6352,-6.6395,-6.6454,-6.6526,-6.6629,-6.661,-6.6653,-6.6662,-6.6719,-6.6825,-6.669,-6.6691,-6.6714,-6.6962,-6.698,-6.7,-6.6818,-6.6822,-6.6825,-6.6958,0,-6.6018,-6.6169,-6.6189,-6.6323,-6.6397,-6.6393,-6.6467,-6.652,-6.6548,-6.6613,-6.6643,-6.6717,-6.6684,-6.6711,-6.6767,-6.68,-6.6875,-6.6791,-6.6885,-6.6888,-6.687,-6.7023,-6.7041,-6.7164,-6.6975,-6.6978,-6.698,0,-6.6181,-6.6248,-6.639,-6.6457,-6.6488,-6.6554,-6.6629,-6.6693,-6.6753,-6.6769,-6.682,-6.6823,-6.691,-6.6859,-6.6979,-6.6922,-6.6961,-6.6984,-6.6989,-6.6998,-6.694,-6.7038,-6.7204,-6.7223,-6.7008,-6.7005,-6.7003,0,-6.6266,-6.6391,-6.6493,-6.6527,-6.6607,-6.6654,-6.6689,-6.6747,-6.6794,-6.6859,-6.689,-6.6963,-6.7004,-6.706,-6.7083,-6.7043,-6.7203,-6.7153,-6.7219,-6.7218,-6.7252,-6.725,-6.7428,-6.7277,-6.7277,-6.7276,-6.7276,0,-6.6401,-6.6489,-6.6533,-6.6596,-6.6694,-6.6716,-6.6812,-6.6845,-6.6897,-6.6966,-6.6966,-6.703,-6.7056,-6.7124,-6.7142,-6.724,-6.7258,-6.7273,-6.7277,-6.7274,-6.7272,-6.73,-6.7292,-6.7281,-6.728,-6.7279,-6.7278,0,-6.6513,-6.6547,-6.6658,-6.6726,-6.6745,-6.6814,-6.6872,-6.6933,-6.696,-6.7048,-6.7069,-6.7112,-6.7193,-6.7221,-6.7318,-6.733,-6.7445,-6.7441,-6.7425,-6.7426,-6.7491,-6.7484,-6.7693,-6.7722,-6.7551,-6.7553,-6.7554,0,-6.6597,-6.6665,-6.6741,-6.6789,-6.6827,-6.6902,-6.6951,-6.6976,-6.7026,-6.7102,-6.7154,-6.7235,-6.7301,-6.743,-6.7469,-6.7544,-6.7542,-6.761,-6.7553,-6.7549,-6.7545,-6.7541,-6.7548,-6.7621,-6.7622,-6.7624,-6.7625,0,-6.6744,-6.6758,-6.6829,-6.6907,-6.6966,-6.7028,-6.7088,-6.7127,-6.716,-6.7217,-6.7301,-6.7353,-6.7454,-6.7534,-6.7611,-6.7646,-6.7642,-6.7643,-6.7662,-6.766,-6.7649,-6.7657,-6.7455,-6.7638,-6.7637,-6.7636,-6.7635,-6.7634,-6.6845,-6.6906,-6.697,-6.705,-6.7099,-6.7156,-6.7217,-6.7254,-6.7325,-6.7411,-6.742,-6.7511,-6.7572,-6.7675,-6.7715,-6.7785,-6.7766,-6.7794,-6.7801,-6.7808,-6.7813,-6.7637,-6.7799,-6.7799,-6.7798,-6.7798,-6.7798,0,-6.6992,-6.7034,-6.7108,-6.7194,-6.7257,-6.725,-6.7316,-6.7369,-6.745,-6.7508,-6.7574,-6.7671,-6.775,-6.7797,-6.7876,-6.7924,-6.7924,-6.7943,-6.794,-6.7949,-6.7825,-6.7801,-6.7942,-6.7942,-6.7942,-6.7942,-6.7942,-6.7942,-6.7077,-6.718,-6.7202,-6.733,-6.7371,-6.7461,-6.75,-6.7553,-6.76,-6.7709,-6.7776,-6.7807,-6.786,-6.7944,-6.8016,-6.8027,-6.8057,-6.8079,-6.8089,-6.7972,-6.7957,-6.7943,-6.7921,-6.8085,-6.8085,-6.8207,-6.8208,-6.8209]}]]